星链-2304 (STARLINK-2304 )

导读 | 星芒AI

STARLINK-2304 是 SpaceX Starlink 项目中的一颗低轨通信卫星,属于第二代星链卫星群。该卫星旨在为全球用户提供高速、低延迟的互联网服务,支持偏远地区和传统网络难以覆盖区域的通信需求。它采用先进推进系统和激光通信技术,提高轨道间数据传输效率。STARLINK-2304 的发射和运行有助于增强星链网络的稳定性和覆盖范围,推动全球互联网接入的普及。

基本信息
目录编号:
47864
目录名称:
STARLINK-2304
国际标识:
2021-021E
轨道中心:
EARTH
卫星名称:
星链-2304
卫星全名:
星链-2304 (STARLINK-2304 )
卫星状态:
已陨落 最后检测时间 2025-02-06
发射日期:
2021-03-14 UTC
国别 :
美国 (US)
星等 :
--
轨道信息
数据来源 国际轨道数据
星历时间: 2025-02-06T05:28:44+0800
轨道信息已过期314天
半长轴: 6536.086km
偏心率: 0.0005375
轨道倾角: 53.026°
近地点辐角 288.877°
升交点赤经 211.966°
平近点角 184.827°
近地点: 154.437km
远地点: 161.465km
周期: 87.647分钟
每日圈数: 16.42957
详细信息
固有亮度:
5
最大亮度:
2.5
卫星平台:
Starlink V1.0
覆盖范围:
全球
运营商:
太空探索技术公司
运营商所在国:
美国
制造商(研发单位):
太空探索技术公司
制造商所在国:
美国
使用方式:
暂无
卫星简介
星链(Starlink)计划是由太空探索技术公司(SpaceX)提出的一个巨型低轨卫星互联网星座项目,计划在2019年至2024年间在太空搭建由约1.2万颗卫星组成的“星链”网络,其中1584颗将部署在地球上空550千米处的近地轨道,并从2020年开始工作。该卫星仍在工作。